一网星座-0599星 (ONEWEB-0599)

导读

ONEWEB-0599是英国OneWeb公司的低轨宽带卫星,于北京时间2023年1月10日由SpaceX猎鹰9号火箭在卡纳维拉尔角发射,属于OneWeb全球低轨卫星星座组网卫星。该卫星重约148公斤,依靠太阳能供电,最终进入1200公里高度近地轨道运行,为全球偏远地区和基础设施落后区域提供低成本宽带互联网接入服务。

基本信息
目录编号:
55155
目录名称:
ONEWEB-0599
国际标识:
2023-004R
轨道中心:
EARTH
卫星名称:
一网星座-0599星
卫星全名:
一网星座-0599星 (ONEWEB-0599)
卫星状态:
在轨 (已飞行1341 天)
发射日期:
2023-01-10 UTC
国别 :
英国 (GB)
星等 :
--
该卫星已列入 空间交会检测服务 Space Conjunction Data Service (SCDS) ,当前飞行风险评估等级: 无高风险
轨道信息
数据来源 国际轨道数据
星历时间: 2026-09-11T13:05:57+0800
22小时前
查看轨道信息
半长轴: 7571.846km
偏心率: 0.0001923
轨道倾角: 87.921°
近地点辐角 94.099°
升交点赤经 348.778°
平近点角 266.036°
近地点: 1192.252km
远地点: 1195.166km
周期: 109.285分钟
每日圈数: 13.176503
详细信息
平衡模式:
三轴稳定
覆盖范围:
全球
运营商:
一网卫星公司
运营商所在国:
英国
制造商(研发单位):
一网卫星公司
制造商所在国:
英国
使用方式:
暂无
卫星简介
OneWeb卫星网络由648颗重约125公斤的微型卫星组成,运行在1200公里的轨道上。 每颗卫星都能够提供至少每秒8千兆位的吞吐量,以使用其高吞吐量的Ku频段有效载荷为家庭和移动平台提供互联网接入。该卫星仍在工作。
2D轨道图
3D轨道图
轨道高度分析图
轨道倾角分析图
轨道综合分析图
查看轨道综合分析图
与全量物体交会距离演化趋势
与全量物体交会风险概率演化趋势